This is the latest recevied weather packets stored in our database for station/object W8UFO-13. If no packets are shown the sender has not sent any weather packets the latest 1 day(s).
| Time | Temp. | Humidity | Pressure | Rain* | Wind** | Luminosity | Snow |
|---|---|---|---|---|---|---|---|
| 1778042356 | 21.67° C | 53% | 1012.8 hPa | 0 mm | 0.45 m/s, 248° | - | - |
| 1778042056 | 21.67° C | 53% | 1012.9 hPa | 0 mm | 0.45 m/s, 293° | - | - |
| 1778041756 | 21.67° C | 54% | 1013 hPa | 0 mm | 0.45 m/s, 248° | - | - |
| 1778041456 | 21.67° C | 53% | 1013 hPa | 0 mm | 0.45 m/s, 270° | - | - |
| 1778041156 | 21.67° C | 53% | 1013 hPa | 0 mm | 0.45 m/s, 248° | - | - |
| 1778040856 | 21.67° C | 54% | 1012.9 hPa | 0 mm | 0.45 m/s, 225° | - | - |
| 1778040556 | 21.67° C | 54% | 1012.8 hPa | 0 mm | 0.45 m/s, 248° | - | - |
| 1778039957 | 21.67° C | 54% | 1012.8 hPa | 0 mm | 0.45 m/s, 203° | - | - |
| 1778039357 | 21.67° C | 54% | 1012.9 hPa | 0 mm | 0.45 m/s, 225° | - | - |
| 1778039058 | 21.67° C | 53% | 1013 hPa | 0 mm | 0.89 m/s, 248° | - | - |
| 1778038756 | 21.67° C | 54% | 1013.1 hPa | 0 mm | 0.89 m/s, 293° | - | - |
| 1778038157 | 21.11° C | 54% | 1012.9 hPa | 0 mm | 0.45 m/s, 248° | - | - |
| 1778037857 | 21.11° C | 54% | 1013 hPa | 0 mm | 0.45 m/s, 225° | - | - |
| 1778037557 | 21.11° C | 55% | 1012.9 hPa | 0 mm | 0.45 m/s, 248° | - | - |
| 1778037257 | 21.11° C | 54% | 1012.9 hPa | 0 mm | 0.45 m/s, 315° | - | - |
| 1778036957 | 21.11° C | 54% | 1012.9 hPa | 0 mm | 0.45 m/s, 248° | - | - |
| 1778036657 | 21.11° C | 54% | 1013 hPa | 0 mm | 0.89 m/s, 225° | - | - |
| 1778035157 | 21.67° C | 53% | 1012.9 hPa | 0 mm | 0.45 m/s, 225° | - | - |
| 1778034857 | 21.67° C | 53% | 1012.8 hPa | 0 mm | 0.45 m/s, 225° | - | - |
| 1778033957 | 21.67° C | 52% | 1012.9 hPa | 0 mm | 0.45 m/s, 270° | - | - |
| 1778033658 | 21.67° C | 52% | 1013 hPa | 0 mm | 0.89 m/s, 225° | - | - |
| 1778033357 | 21.67° C | 52% | 1012.8 hPa | 0 mm | 0.89 m/s, 203° | - | - |
| 1778032758 | 21.67° C | 52% | 1012.7 hPa | 0 mm | 0.45 m/s, 113° | - | - |
| 1778032457 | 21.67° C | 52% | 1012.6 hPa | 0 mm | 0.45 m/s, 270° | - | - |
| 1778031557 | 21.67° C | 51% | 1012.3 hPa | 0 mm | 0.45 m/s, 338° | - | - |
* Rain latest hour (hover to see other rain measurements)
** Current wind speed in m/s (hover to see current wind gust speed)